TEVEL-8 (50989 NORAD) Tracking and Keplerian Element Data

This shows tracking and keplerian element data for the satellite.

Feedback or suggestion? Click here.




ElementValue
Catalog50989
NameTEVEL-8
Epoch Orbit4714
Epoch Day325.12032801
Epoch Year2022
RAAN29.592
Inclination97.4659
Eccentricity0.0008007
Argument of Perigee234.1269
Mean Anonmoly153.9071
Mean Motion15.16835893
Decay Rate8.01E-05
L11 50989U 22002F 22325.12032801 .00008010 00000+0 41021-3 0 9997
L22 50989 97.4659 29.5920 0008007 234.1269 153.9071 15.16835893 47143



Live tracking and technical data element details for TEVEL-8 (NORAD 50989). TEVEL-8 can be tracked NOW for your location showing map with azimuth and elevation plus other details from your city location.







IsCatalogInMostPopularTable: catalog: 50989, numindb: 38
Update: records affected: 1



GetName: 50989 TEVEL-8

Hit Count: updated at: Fri, 02 Dec 2022 12:30:23 GMT